COSMOS 249 DEB, 3695

Orbit data source: Space-Track

COSMOS 249 DEB, 3695 is space debris in LEO originally from a launch on Sun, 20 Oct 1968 UTC launched from the Tyuratam Missile And Space Complex (TTMTR). Debris objects in space refer to the collection of defunct objects orbiting the Earth. Examples of debris include non-operational satellites, rocket bodies, and fragments generated from explosions, collisions, or faulty payload assembly.

Loading next visibility...
Identifier
3695, 1968-091AL
Orbit
LEO
Country
Flag of CISCIS
Related business
Manufacturer
Unknown
Mission
Spacecraft
Bus & Motor
Unknown
Mass
Unknown
Launch date (UTC)
1968-10-20 (58 years ago)
Launch vehicle
Unknown
Launch site
Tyuratam Missile And Space Complex (TTMTR)
Object type
Payload
Rocket body
Debris
Shape & HBR
Unknown shape, 0.1 m
Radar Cross Section
Medium (>0.1 m² and <1 m²)

Expand to show TLE details & history
Last TLE update: 14 hours ago

TLE from 14 hours ago
0 COSMOS 249 DEB
1 03695U 68091AL  26235.92912504  .00000507  00000-0  65484-3 0  9999
2 03695  62.2408  79.5036 0636835 251.9096 101.1568 13.07515352681054
Epoch: 2026-08-23T22:17Z
TLE epoch observation values (Epoch: 2026-08-23T22:17:56.403Z)
Latitude
-0.00002°
Longitude
132.80045°
Altitude
1,357.308 km
Speed
7.122 km/s
True Right ascension
05h 18m 00s
True Declination
0° 00' 00"
Sunlit
Object was in daylight at epoch
Visualization orbit readout
Latitude
Unknown
Longitude
Unknown
Altitude
Unknown
Speed
Unknown
Apparent Right ascension
Unknown
Apparent Declination
Unknown
Sunlit
N/A
Visualization observer readout
Local Sidereal Time
03:32:10
Azimuth
Unknown
Elevation
Unknown
Doppler factor
Unknown
Orbital elements
Apogee altitude
1,716.4 km
Perigee altitude
747.148 km
Semi-major axis
7,609.911 km
Eccentricity
0.06368
Inclination
62.2408°
RAAN
79.5036°
Arg. of periapsis
251.9096°
True anomaly
108.19014°
Mean anomaly
101.1568°
Eccentric anomaly
104.68638°
Mean motion
3.26944 °/min
Orbital period
110.11 mins
BSTAR
0.00065484
Loading maneuver chart data...
Computing Atmospheric mass density...
Loading historical data...
Loading historical data...
Loading historical data...
Loading historical data...
Loading historical data...
Loading historical data...
Loading historical data...

Documentation

Showing up to 5 results
|